owner,sensor,date,latitude,longitude,vertical_datum,sea_water_practical_salinity,qcFlag 
TCOON,ioos:station:TCOON:127:1,2015-10-01T00:30:00Z,28.2598,-96.7737,0.0,16.4,1111122 
TCOON,ioos:station:TCOON:127:1,2015-10-01T01:30:00Z,28.2598,-96.7737,0.0,16.2,1111122 
TCOON,ioos:station:TCOON:127:1,2015-10-01T02:30:00Z,28.2598,-96.7737,0.0,16.2,1111122 
TCOON,ioos:station:TCOON:127:1,2015-10-01T03:30:00Z,28.2598,-96.7737,0.0,16.7,1111122 
TCOON,ioos:station:TCOON:127:1,2015-10-01T04:30:00Z,28.2598,-96.7737,0.0,16.6,1111122 
TCOON,ioos:station:TCOON:127:1,2015-10-01T05:30:00Z,28.2598,-96.7737,0.0,17.1,1111122 
TCOON,ioos:station:TCOON:127:1,2015-10-01T06:30:00Z,28.2598,-96.7737,0.0,17.5,1111122 
TCOON,ioos:station:TCOON:127:1,2015-10-01T08:30:00Z,28.2598,-96.7737,0.0,17.8,1111122 
TCOON,ioos:station:TCOON:127:1,2015-10-01T11:30:00Z,28.2598,-96.7737,0.0,18.7,1111122 
TCOON,ioos:station:TCOON:127:1,2015-10-01T13:30:00Z,28.2598,-96.7737,0.0,18.1,1111122 
TCOON,ioos:station:TCOON:127:1,2015-10-01T15:00:00Z,28.2598,-96.7737,0.0,18.1,1111122 
TCOON,ioos:station:TCOON:127:1,2015-10-01T15:30:00Z,28.2598,-96.7737,0.0,18.1,1111122 
TCOON,ioos:station:TCOON:127:1,2015-10-01T16:30:00Z,28.2598,-96.7737,0.0,18.1,1111122 
TCOON,ioos:station:TCOON:127:1,2015-10-01T17:30:00Z,28.2598,-96.7737,0.0,18.0,1111122 
TCOON,ioos:station:TCOON:127:1,2015-10-01T18:30:00Z,28.2598,-96.7737,0.0,17.2,1111122 
TCOON,ioos:station:TCOON:127:1,2015-10-01T19:30:00Z,28.2598,-96.7737,0.0,17.3,1111122 
TCOON,ioos:station:TCOON:127:1,2015-10-01T20:30:00Z,28.2598,-96.7737,0.0,17.5,1111122 
TCOON,ioos:station:TCOON:127:1,2015-10-01T21:30:00Z,28.2598,-96.7737,0.0,17.5,1111122 
TCOON,ioos:station:TCOON:127:1,2015-10-01T22:30:00Z,28.2598,-96.7737,0.0,17.5,1111122 
TCOON,ioos:station:TCOON:127:1,2015-10-01T23:30:00Z,28.2598,-96.7737,0.0,17.4,1111122 
TCOON,ioos:station:TCOON:127:1,2015-10-02T00:30:00Z,28.2598,-96.7737,0.0,16.8,1111122 
TCOON,ioos:station:TCOON:127:1,2015-10-02T01:30:00Z,28.2598,-96.7737,0.0,17.1,1111122 
TCOON,ioos:station:TCOON:127:1,2015-10-02T02:30:00Z,28.2598,-96.7737,0.0,17.2,1111122 
TCOON,ioos:station:TCOON:127:1,2015-10-02T03:30:00Z,28.2598,-96.7737,0.0,17.3,1111122 
TCOON,ioos:station:TCOON:127:1,2015-10-02T04:30:00Z,28.2598,-96.7737,0.0,17.5,1111122 
TCOON,ioos:station:TCOON:127:1,2015-10-02T05:30:00Z,28.2598,-96.7737,0.0,17.7,1111122 
TCOON,ioos:station:TCOON:127:1,2015-10-02T06:30:00Z,28.2598,-96.7737,0.0,17.8,1111122 
TCOON,ioos:station:TCOON:127:1,2015-10-02T09:30:00Z,28.2598,-96.7737,0.0,17.4,1111122 
TCOON,ioos:station:TCOON:127:1,2015-10-02T10:30:00Z,28.2598,-96.7737,0.0,17.4,1111122 
TCOON,ioos:station:TCOON:127:1,2015-10-02T11:30:00Z,28.2598,-96.7737,0.0,17.6,1111122 
TCOON,ioos:station:TCOON:127:1,2015-10-02T12:30:00Z,28.2598,-96.7737,0.0,17.8,1111122 
TCOON,ioos:station:TCOON:127:1,2015-10-02T13:30:00Z,28.2598,-96.7737,0.0,15.1,1111122 
TCOON,ioos:station:TCOON:127:1,2015-10-02T14:30:00Z,28.2598,-96.7737,0.0,18.0,1111122 
TCOON,ioos:station:TCOON:127:1,2015-10-02T16:30:00Z,28.2598,-96.7737,0.0,17.8,1111122 
TCOON,ioos:station:TCOON:127:1,2015-10-02T17:30:00Z,28.2598,-96.7737,0.0,17.2,1111122 
TCOON,ioos:station:TCOON:127:1,2015-10-02T18:30:00Z,28.2598,-96.7737,0.0,17.3,1111122 
TCOON,ioos:station:TCOON:127:1,2015-10-02T19:30:00Z,28.2598,-96.7737,0.0,17.0,1111122 
TCOON,ioos:station:TCOON:127:1,2015-10-02T20:30:00Z,28.2598,-96.7737,0.0,16.3,1111122 
TCOON,ioos:station:TCOON:127:1,2015-10-02T21:30:00Z,28.2598,-96.7737,0.0,16.5,1111122 
TCOON,ioos:station:TCOON:127:1,2015-10-02T22:30:00Z,28.2598,-96.7737,0.0,17.6,1111122 
TCOON,ioos:station:TCOON:127:1,2015-10-03T00:30:00Z,28.2598,-96.7737,0.0,17.2,1111122 
TCOON,ioos:station:TCOON:127:1,2015-10-03T01:30:00Z,28.2598,-96.7737,0.0,17.5,1111122 
TCOON,ioos:station:TCOON:127:1,2015-10-03T02:30:00Z,28.2598,-96.7737,0.0,17.8,1111122 
TCOON,ioos:station:TCOON:127:1,2015-10-03T03:30:00Z,28.2598,-96.7737,0.0,18.0,1111122 
TCOON,ioos:station:TCOON:127:1,2015-10-03T04:30:00Z,28.2598,-96.7737,0.0,18.3,1111122 
TCOON,ioos:station:TCOON:127:1,2015-10-03T05:30:00Z,28.2598,-96.7737,0.0,18.4,1111122 
TCOON,ioos:station:TCOON:127:1,2015-10-03T06:30:00Z,28.2598,-96.7737,0.0,18.5,1111122 
TCOON,ioos:station:TCOON:127:1,2015-10-03T07:30:00Z,28.2598,-96.7737,0.0,18.5,1111122 
TCOON,ioos:station:TCOON:127:1,2015-10-03T08:30:00Z,28.2598,-96.7737,0.0,18.6,1111122 
TCOON,ioos:station:TCOON:127:1,2015-10-03T11:30:00Z,28.2598,-96.7737,0.0,18.6,1111122 
TCOON,ioos:station:TCOON:127:1,2015-10-03T13:30:00Z,28.2598,-96.7737,0.0,18.6,1111122 
TCOON,ioos:station:TCOON:127:1,2015-10-03T14:30:00Z,28.2598,-96.7737,0.0,18.8,1111122 
TCOON,ioos:station:TCOON:127:1,2015-10-03T15:30:00Z,28.2598,-96.7737,0.0,19.0,1111122 
TCOON,ioos:station:TCOON:127:1,2015-10-03T16:30:00Z,28.2598,-96.7737,0.0,18.8,1111122 
TCOON,ioos:station:TCOON:127:1,2015-10-03T17:30:00Z,28.2598,-96.7737,0.0,19.0,1111122 
TCOON,ioos:station:TCOON:127:1,2015-10-03T18:30:00Z,28.2598,-96.7737,0.0,18.5,1111122 
TCOON,ioos:station:TCOON:127:1,2015-10-03T22:30:00Z,28.2598,-96.7737,0.0,18.2,1111122 
TCOON,ioos:station:TCOON:127:1,2015-10-03T23:30:00Z,28.2598,-96.7737,0.0,17.8,1111122 
TCOON,ioos:station:TCOON:127:1,2015-10-04T01:30:00Z,28.2598,-96.7737,0.0,17.7,1111122 
TCOON,ioos:station:TCOON:127:1,2015-10-04T02:30:00Z,28.2598,-96.7737,0.0,17.7,1111122 
TCOON,ioos:station:TCOON:127:1,2015-10-04T03:30:00Z,28.2598,-96.7737,0.0,17.7,1111122 
TCOON,ioos:station:TCOON:127:1,2015-10-04T04:30:00Z,28.2598,-96.7737,0.0,17.7,1111122 
TCOON,ioos:station:TCOON:127:1,2015-10-04T05:30:00Z,28.2598,-96.7737,0.0,17.5,1111122 
TCOON,ioos:station:TCOON:127:1,2015-10-04T06:30:00Z,28.2598,-96.7737,0.0,17.7,1111122 
TCOON,ioos:station:TCOON:127:1,2015-10-04T08:00:00Z,28.2598,-96.7737,0.0,18.0,1111122 
TCOON,ioos:station:TCOON:127:1,2015-10-04T08:30:00Z,28.2598,-96.7737,0.0,18.0,1111122 
TCOON,ioos:station:TCOON:127:1,2015-10-04T09:30:00Z,28.2598,-96.7737,0.0,18.0,1111122 
TCOON,ioos:station:TCOON:127:1,2015-10-04T10:30:00Z,28.2598,-96.7737,0.0,17.9,1111122 
TCOON,ioos:station:TCOON:127:1,2015-10-04T11:30:00Z,28.2598,-96.7737,0.0,17.8,1111122 
TCOON,ioos:station:TCOON:127:1,2015-10-04T12:30:00Z,28.2598,-96.7737,0.0,17.6,1111122 
TCOON,ioos:station:TCOON:127:1,2015-10-04T14:30:00Z,28.2598,-96.7737,0.0,17.4,1111122 
TCOON,ioos:station:TCOON:127:1,2015-10-04T15:30:00Z,28.2598,-96.7737,0.0,17.2,1111122 
TCOON,ioos:station:TCOON:127:1,2015-10-04T17:30:00Z,28.2598,-96.7737,0.0,16.6,1111122 
TCOON,ioos:station:TCOON:127:1,2015-10-04T18:30:00Z,28.2598,-96.7737,0.0,16.4,1111122 
TCOON,ioos:station:TCOON:127:1,2015-10-04T19:30:00Z,28.2598,-96.7737,0.0,16.1,1111122 
TCOON,ioos:station:TCOON:127:1,2015-10-04T20:30:00Z,28.2598,-96.7737,0.0,15.9,1111122 
TCOON,ioos:station:TCOON:127:1,2015-10-04T21:30:00Z,28.2598,-96.7737,0.0,15.4,1111122 
TCOON,ioos:station:TCOON:127:1,2015-10-04T22:30:00Z,28.2598,-96.7737,0.0,14.6,1111122 
TCOON,ioos:station:TCOON:127:1,2015-10-05T00:00:00Z,28.2598,-96.7737,0.0,14.3,1111122 
TCOON,ioos:station:TCOON:127:1,2015-10-05T01:30:00Z,28.2598,-96.7737,0.0,13.6,1111122 
TCOON,ioos:station:TCOON:127:1,2015-10-05T02:30:00Z,28.2598,-96.7737,0.0,13.6,1111122 
TCOON,ioos:station:TCOON:127:1,2015-10-05T03:30:00Z,28.2598,-96.7737,0.0,13.4,1111122 
TCOON,ioos:station:TCOON:127:1,2015-10-05T04:30:00Z,28.2598,-96.7737,0.0,12.6,1111122 
TCOON,ioos:station:TCOON:127:1,2015-10-05T05:30:00Z,28.2598,-96.7737,0.0,10.9,1111122 
TCOON,ioos:station:TCOON:127:1,2015-10-05T06:30:00Z,28.2598,-96.7737,0.0,13.2,1111122 
TCOON,ioos:station:TCOON:127:1,2015-10-05T08:30:00Z,28.2598,-96.7737,0.0,12.7,1111122 
TCOON,ioos:station:TCOON:127:1,2015-10-05T09:30:00Z,28.2598,-96.7737,0.0,11.7,1111122 
TCOON,ioos:station:TCOON:127:1,2015-10-05T10:30:00Z,28.2598,-96.7737,0.0,11.6,1111122 
TCOON,ioos:station:TCOON:127:1,2015-10-05T11:30:00Z,28.2598,-96.7737,0.0,11.3,1111122 
TCOON,ioos:station:TCOON:127:1,2015-10-05T12:30:00Z,28.2598,-96.7737,0.0,11.3,1111122 
TCOON,ioos:station:TCOON:127:1,2015-10-05T13:30:00Z,28.2598,-96.7737,0.0,11.1,1111122 
TCOON,ioos:station:TCOON:127:1,2015-10-05T14:30:00Z,28.2598,-96.7737,0.0,10.9,1111122 
TCOON,ioos:station:TCOON:127:1,2015-10-05T15:30:00Z,28.2598,-96.7737,0.0,10.8,1111122 
TCOON,ioos:station:TCOON:127:1,2015-10-05T16:30:00Z,28.2598,-96.7737,0.0,10.7,1111122 
TCOON,ioos:station:TCOON:127:1,2015-10-05T17:30:00Z,28.2598,-96.7737,0.0,10.4,1111122 
TCOON,ioos:station:TCOON:127:1,2015-10-05T18:30:00Z,28.2598,-96.7737,0.0,9.2,1111122 
TCOON,ioos:station:TCOON:127:1,2015-10-05T19:30:00Z,28.2598,-96.7737,0.0,10.1,1111122 
TCOON,ioos:station:TCOON:127:1,2015-10-05T20:30:00Z,28.2598,-96.7737,0.0,10.2,1111122 
TCOON,ioos:station:TCOON:127:1,2015-10-05T21:30:00Z,28.2598,-96.7737,0.0,9.8,1111122 
TCOON,ioos:station:TCOON:127:1,2015-10-05T22:30:00Z,28.2598,-96.7737,0.0,9.4,1111122 
TCOON,ioos:station:TCOON:127:1,2015-10-05T23:30:00Z,28.2598,-96.7737,0.0,9.4,1111122 
TCOON,ioos:station:TCOON:127:1,2015-10-06T00:30:00Z,28.2598,-96.7737,0.0,9.0,1111122 
TCOON,ioos:station:TCOON:127:1,2015-10-06T01:30:00Z,28.2598,-96.7737,0.0,8.5,1111122 
TCOON,ioos:station:TCOON:127:1,2015-10-06T02:30:00Z,28.2598,-96.7737,0.0,8.8,1111122 
TCOON,ioos:station:TCOON:127:1,2015-10-06T03:30:00Z,28.2598,-96.7737,0.0,8.5,1111122 
TCOON,ioos:station:TCOON:127:1,2015-10-06T04:30:00Z,28.2598,-96.7737,0.0,9.9,1111122 
TCOON,ioos:station:TCOON:127:1,2015-10-06T05:30:00Z,28.2598,-96.7737,0.0,8.5,1111122 
TCOON,ioos:station:TCOON:127:1,2015-10-06T06:30:00Z,28.2598,-96.7737,0.0,9.0,1111122 
TCOON,ioos:station:TCOON:127:1,2015-10-06T08:00:00Z,28.2598,-96.7737,0.0,8.6,1111122 
TCOON,ioos:station:TCOON:127:1,2015-10-06T08:30:00Z,28.2598,-96.7737,0.0,9.4,1111122 
TCOON,ioos:station:TCOON:127:1,2015-10-06T09:30:00Z,28.2598,-96.7737,0.0,8.4,1111122 
TCOON,ioos:station:TCOON:127:1,2015-10-06T10:30:00Z,28.2598,-96.7737,0.0,8.6,1111122 
TCOON,ioos:station:TCOON:127:1,2015-10-06T11:30:00Z,28.2598,-96.7737,0.0,8.7,1111122 
TCOON,ioos:station:TCOON:127:1,2015-10-06T12:30:00Z,28.2598,-96.7737,0.0,8.4,1111122 
TCOON,ioos:station:TCOON:127:1,2015-10-06T13:30:00Z,28.2598,-96.7737,0.0,8.5,1111122 
TCOON,ioos:station:TCOON:127:1,2015-10-06T14:30:00Z,28.2598,-96.7737,0.0,8.8,1111122 
TCOON,ioos:station:TCOON:127:1,2015-10-06T15:30:00Z,28.2598,-96.7737,0.0,9.0,1111122 
TCOON,ioos:station:TCOON:127:1,2015-10-06T16:30:00Z,28.2598,-96.7737,0.0,8.5,1111122 
TCOON,ioos:station:TCOON:127:1,2015-10-06T17:30:00Z,28.2598,-96.7737,0.0,8.4,1111122 
TCOON,ioos:station:TCOON:127:1,2015-10-06T18:30:00Z,28.2598,-96.7737,0.0,8.7,1111122 
TCOON,ioos:station:TCOON:127:1,2015-10-06T19:30:00Z,28.2598,-96.7737,0.0,8.8,1111122 
TCOON,ioos:station:TCOON:127:1,2015-10-06T20:30:00Z,28.2598,-96.7737,0.0,8.6,1111122 
TCOON,ioos:station:TCOON:127:1,2015-10-06T21:30:00Z,28.2598,-96.7737,0.0,7.7,1111122 
TCOON,ioos:station:TCOON:127:1,2015-10-06T23:00:00Z,28.2598,-96.7737,0.0,8.3,1111122 
TCOON,ioos:station:TCOON:127:1,2015-10-06T23:30:00Z,28.2598,-96.7737,0.0,8.4,1111122 
TCOON,ioos:station:TCOON:127:1,2015-10-07T00:30:00Z,28.2598,-96.7737,0.0,8.4,1111122 
TCOON,ioos:station:TCOON:127:1,2015-10-07T01:30:00Z,28.2598,-96.7737,0.0,8.6,1111122 
TCOON,ioos:station:TCOON:127:1,2015-10-07T02:30:00Z,28.2598,-96.7737,0.0,8.4,1111122 
TCOON,ioos:station:TCOON:127:1,2015-10-07T03:30:00Z,28.2598,-96.7737,0.0,8.7,1111122 
TCOON,ioos:station:TCOON:127:1,2015-10-07T05:30:00Z,28.2598,-96.7737,0.0,8.3,1111122 
TCOON,ioos:station:TCOON:127:1,2015-10-07T06:30:00Z,28.2598,-96.7737,0.0,8.3,1111122 
TCOON,ioos:station:TCOON:127:1,2015-10-07T07:30:00Z,28.2598,-96.7737,0.0,8.4,1111122 
TCOON,ioos:station:TCOON:127:1,2015-10-07T08:30:00Z,28.2598,-96.7737,0.0,8.6,1111122 
TCOON,ioos:station:TCOON:127:1,2015-10-07T09:30:00Z,28.2598,-96.7737,0.0,8.5,1111122 
TCOON,ioos:station:TCOON:127:1,2015-10-07T10:30:00Z,28.2598,-96.7737,0.0,8.2,1111122 
TCOON,ioos:station:TCOON:127:1,2015-10-07T11:30:00Z,28.2598,-96.7737,0.0,8.4,1111122 
TCOON,ioos:station:TCOON:127:1,2015-10-07T12:30:00Z,28.2598,-96.7737,0.0,8.3,1111122 
TCOON,ioos:station:TCOON:127:1,2015-10-07T13:30:00Z,28.2598,-96.7737,0.0,8.6,1111122 
TCOON,ioos:station:TCOON:127:1,2015-10-07T14:30:00Z,28.2598,-96.7737,0.0,8.4,1111122 
TCOON,ioos:station:TCOON:127:1,2015-10-07T19:30:00Z,28.2598,-96.7737,0.0,8.4,1111122 
TCOON,ioos:station:TCOON:127:1,2015-10-07T20:30:00Z,28.2598,-96.7737,0.0,8.6,1111122 
TCOON,ioos:station:TCOON:127:1,2015-10-07T21:30:00Z,28.2598,-96.7737,0.0,8.4,1111122 
TCOON,ioos:station:TCOON:127:1,2015-10-07T22:30:00Z,28.2598,-96.7737,0.0,8.6,1111122 
TCOON,ioos:station:TCOON:127:1,2015-10-08T00:30:00Z,28.2598,-96.7737,0.0,8.4,1111122 
TCOON,ioos:station:TCOON:127:1,2015-10-08T01:30:00Z,28.2598,-96.7737,0.0,8.6,1111122 
TCOON,ioos:station:TCOON:127:1,2015-10-08T02:30:00Z,28.2598,-96.7737,0.0,8.6,1111122 
TCOON,ioos:station:TCOON:127:1,2015-10-08T03:30:00Z,28.2598,-96.7737,0.0,8.5,1111122 
TCOON,ioos:station:TCOON:127:1,2015-10-08T04:30:00Z,28.2598,-96.7737,0.0,8.4,1111122 
TCOON,ioos:station:TCOON:127:1,2015-10-08T05:30:00Z,28.2598,-96.7737,0.0,8.4,1111122 
TCOON,ioos:station:TCOON:127:1,2015-10-08T06:30:00Z,28.2598,-96.7737,0.0,8.4,1111122 
TCOON,ioos:station:TCOON:127:1,2015-10-08T08:00:00Z,28.2598,-96.7737,0.0,8.2,1111122 
TCOON,ioos:station:TCOON:127:1,2015-10-08T08:30:00Z,28.2598,-96.7737,0.0,8.2,1111122 
TCOON,ioos:station:TCOON:127:1,2015-10-08T09:30:00Z,28.2598,-96.7737,0.0,8.2,1111122 
TCOON,ioos:station:TCOON:127:1,2015-10-08T10:30:00Z,28.2598,-96.7737,0.0,8.1,1111122 
TCOON,ioos:station:TCOON:127:1,2015-10-08T11:30:00Z,28.2598,-96.7737,0.0,8.1,1111122 
TCOON,ioos:station:TCOON:127:1,2015-10-08T12:30:00Z,28.2598,-96.7737,0.0,8.0,1111122 
TCOON,ioos:station:TCOON:127:1,2015-10-08T13:30:00Z,28.2598,-96.7737,0.0,8.0,1111122 
TCOON,ioos:station:TCOON:127:1,2015-10-08T14:30:00Z,28.2598,-96.7737,0.0,8.0,1111122 
TCOON,ioos:station:TCOON:127:1,2015-10-08T15:30:00Z,28.2598,-96.7737,0.0,8.0,1111122 
TCOON,ioos:station:TCOON:127:1,2015-10-08T16:30:00Z,28.2598,-96.7737,0.0,7.9,1111122 
TCOON,ioos:station:TCOON:127:1,2015-10-08T17:30:00Z,28.2598,-96.7737,0.0,8.0,1111122 
TCOON,ioos:station:TCOON:127:1,2015-10-08T18:30:00Z,28.2598,-96.7737,0.0,7.9,1111122 
TCOON,ioos:station:TCOON:127:1,2015-10-08T19:30:00Z,28.2598,-96.7737,0.0,7.8,1111122 
TCOON,ioos:station:TCOON:127:1,2015-10-08T21:30:00Z,28.2598,-96.7737,0.0,7.1,1111122 
TCOON,ioos:station:TCOON:127:1,2015-10-08T23:30:00Z,28.2598,-96.7737,0.0,7.8,1111122 
TCOON,ioos:station:TCOON:127:1,2015-10-09T00:30:00Z,28.2598,-96.7737,0.0,7.8,1111122 
TCOON,ioos:station:TCOON:127:1,2015-10-09T01:30:00Z,28.2598,-96.7737,0.0,7.7,1111122 
TCOON,ioos:station:TCOON:127:1,2015-10-09T02:30:00Z,28.2598,-96.7737,0.0,7.7,1111122 
TCOON,ioos:station:TCOON:127:1,2015-10-09T03:30:00Z,28.2598,-96.7737,0.0,7.6,1111122 
TCOON,ioos:station:TCOON:127:1,2015-10-09T04:30:00Z,28.2598,-96.7737,0.0,7.5,1111122 
TCOON,ioos:station:TCOON:127:1,2015-10-09T05:30:00Z,28.2598,-96.7737,0.0,7.5,1111122 
TCOON,ioos:station:TCOON:127:1,2015-10-09T08:00:00Z,28.2598,-96.7737,0.0,7.5,1111122 
TCOON,ioos:station:TCOON:127:1,2015-10-09T08:30:00Z,28.2598,-96.7737,0.0,7.5,1111122 
TCOON,ioos:station:TCOON:127:1,2015-10-09T09:30:00Z,28.2598,-96.7737,0.0,7.4,1111122 
TCOON,ioos:station:TCOON:127:1,2015-10-09T10:30:00Z,28.2598,-96.7737,0.0,7.3,1111122 
TCOON,ioos:station:TCOON:127:1,2015-10-09T11:30:00Z,28.2598,-96.7737,0.0,7.3,1111122 
TCOON,ioos:station:TCOON:127:1,2015-10-09T12:30:00Z,28.2598,-96.7737,0.0,6.0,1111122 
TCOON,ioos:station:TCOON:127:1,2015-10-09T13:30:00Z,28.2598,-96.7737,0.0,7.2,1111122 
TCOON,ioos:station:TCOON:127:1,2015-10-09T14:30:00Z,28.2598,-96.7737,0.0,7.2,1111122 
TCOON,ioos:station:TCOON:127:1,2015-10-09T15:30:00Z,28.2598,-96.7737,0.0,17.5,1111122 
TCOON,ioos:station:TCOON:127:1,2015-10-09T16:30:00Z,28.2598,-96.7737,0.0,17.8,1111122 
TCOON,ioos:station:TCOON:127:1,2015-10-09T17:30:00Z,28.2598,-96.7737,0.0,16.0,1111122 
TCOON,ioos:station:TCOON:127:1,2015-10-09T18:30:00Z,28.2598,-96.7737,0.0,15.7,1111122 
TCOON,ioos:station:TCOON:127:1,2015-10-09T19:30:00Z,28.2598,-96.7737,0.0,15.3,1111122 
TCOON,ioos:station:TCOON:127:1,2015-10-09T20:30:00Z,28.2598,-96.7737,0.0,15.3,1111122 
TCOON,ioos:station:TCOON:127:1,2015-10-09T21:30:00Z,28.2598,-96.7737,0.0,15.4,1111122 
TCOON,ioos:station:TCOON:127:1,2015-10-09T22:30:00Z,28.2598,-96.7737,0.0,1.0,1111122 
TCOON,ioos:station:TCOON:127:1,2015-10-09T23:30:00Z,28.2598,-96.7737,0.0,0.2,1111122 
TCOON,ioos:station:TCOON:127:1,2015-10-11T03:30:00Z,28.2598,-96.7737,0.0,0.0,1114422 
TCOON,ioos:station:TCOON:127:1,2015-10-11T05:30:00Z,28.2598,-96.7737,0.0,0.0,1114422 
TCOON,ioos:station:TCOON:127:1,2015-10-11T06:30:00Z,28.2598,-96.7737,0.0,0.0,1114422 
TCOON,ioos:station:TCOON:127:1,2015-10-11T08:00:00Z,28.2598,-96.7737,0.0,0.0,1114422 
TCOON,ioos:station:TCOON:127:1,2015-10-11T08:30:00Z,28.2598,-96.7737,0.0,0.0,1114422 
TCOON,ioos:station:TCOON:127:1,2015-10-11T09:30:00Z,28.2598,-96.7737,0.0,0.0,1114422 
TCOON,ioos:station:TCOON:127:1,2015-10-11T10:30:00Z,28.2598,-96.7737,0.0,0.0,1114422 
TCOON,ioos:station:TCOON:127:1,2015-10-11T11:30:00Z,28.2598,-96.7737,0.0,0.0,1114422 
TCOON,ioos:station:TCOON:127:1,2015-10-11T12:30:00Z,28.2598,-96.7737,0.0,0.0,1114422 
TCOON,ioos:station:TCOON:127:1,2015-10-11T13:30:00Z,28.2598,-96.7737,0.0,0.0,1114422 
TCOON,ioos:station:TCOON:127:1,2015-10-11T14:30:00Z,28.2598,-96.7737,0.0,0.0,1114422 
TCOON,ioos:station:TCOON:127:1,2015-10-11T15:30:00Z,28.2598,-96.7737,0.0,0.0,1114422 
TCOON,ioos:station:TCOON:127:1,2015-10-11T16:30:00Z,28.2598,-96.7737,0.0,0.0,1114422 
TCOON,ioos:station:TCOON:127:1,2015-10-11T17:30:00Z,28.2598,-96.7737,0.0,0.0,1114422 
TCOON,ioos:station:TCOON:127:1,2015-10-11T18:30:00Z,28.2598,-96.7737,0.0,0.0,1114422 
TCOON,ioos:station:TCOON:127:1,2015-10-11T19:30:00Z,28.2598,-96.7737,0.0,0.0,1114422 
TCOON,ioos:station:TCOON:127:1,2015-10-11T20:30:00Z,28.2598,-96.7737,0.0,0.0,1114422 
TCOON,ioos:station:TCOON:127:1,2015-10-11T21:30:00Z,28.2598,-96.7737,0.0,0.0,1114422 
TCOON,ioos:station:TCOON:127:1,2015-10-11T22:30:00Z,28.2598,-96.7737,0.0,0.0,1114422 
TCOON,ioos:station:TCOON:127:1,2015-10-11T23:30:00Z,28.2598,-96.7737,0.0,0.0,1114422 
TCOON,ioos:station:TCOON:127:1,2015-10-12T00:30:00Z,28.2598,-96.7737,0.0,0.0,1114422 
TCOON,ioos:station:TCOON:127:1,2015-10-12T03:30:00Z,28.2598,-96.7737,0.0,0.0,1114422 
TCOON,ioos:station:TCOON:127:1,2015-10-12T04:30:00Z,28.2598,-96.7737,0.0,0.0,1114422 
TCOON,ioos:station:TCOON:127:1,2015-10-12T05:30:00Z,28.2598,-96.7737,0.0,0.0,1114422 
TCOON,ioos:station:TCOON:127:1,2015-10-12T06:30:00Z,28.2598,-96.7737,0.0,0.0,1114422 
TCOON,ioos:station:TCOON:127:1,2015-10-12T08:00:00Z,28.2598,-96.7737,0.0,0.0,1114422 
TCOON,ioos:station:TCOON:127:1,2015-10-12T10:30:00Z,28.2598,-96.7737,0.0,0.0,1114422 
TCOON,ioos:station:TCOON:127:1,2015-10-12T11:30:00Z,28.2598,-96.7737,0.0,0.0,1114422 
TCOON,ioos:station:TCOON:127:1,2015-10-12T12:30:00Z,28.2598,-96.7737,0.0,0.0,1114422 
TCOON,ioos:station:TCOON:127:1,2015-10-12T13:30:00Z,28.2598,-96.7737,0.0,0.0,1114422 
TCOON,ioos:station:TCOON:127:1,2015-10-12T14:30:00Z,28.2598,-96.7737,0.0,0.0,1114422 
TCOON,ioos:station:TCOON:127:1,2015-10-12T15:30:00Z,28.2598,-96.7737,0.0,0.0,1114422 
TCOON,ioos:station:TCOON:127:1,2015-10-12T16:30:00Z,28.2598,-96.7737,0.0,19.6,1111122 
TCOON,ioos:station:TCOON:127:1,2015-10-12T17:30:00Z,28.2598,-96.7737,0.0,19.7,1111122 
TCOON,ioos:station:TCOON:127:1,2015-10-12T18:30:00Z,28.2598,-96.7737,0.0,20.6,1111122 
TCOON,ioos:station:TCOON:127:1,2015-10-12T19:30:00Z,28.2598,-96.7737,0.0,20.7,1111122 
TCOON,ioos:station:TCOON:127:1,2015-10-12T20:30:00Z,28.2598,-96.7737,0.0,21.2,1111122 
TCOON,ioos:station:TCOON:127:1,2015-10-12T21:30:00Z,28.2598,-96.7737,0.0,21.3,1111122 
TCOON,ioos:station:TCOON:127:1,2015-10-12T22:30:00Z,28.2598,-96.7737,0.0,21.3,1111122 
TCOON,ioos:station:TCOON:127:1,2015-10-12T23:30:00Z,28.2598,-96.7737,0.0,21.3,1111122 
TCOON,ioos:station:TCOON:127:1,2015-10-13T00:30:00Z,28.2598,-96.7737,0.0,21.4,1111122 
TCOON,ioos:station:TCOON:127:1,2015-10-13T01:30:00Z,28.2598,-96.7737,0.0,21.3,1111122 
TCOON,ioos:station:TCOON:127:1,2015-10-13T02:30:00Z,28.2598,-96.7737,0.0,21.3,1111122 
TCOON,ioos:station:TCOON:127:1,2015-10-13T03:30:00Z,28.2598,-96.7737,0.0,21.1,1111122 
TCOON,ioos:station:TCOON:127:1,2015-10-13T05:30:00Z,28.2598,-96.7737,0.0,21.0,1111122 
TCOON,ioos:station:TCOON:127:1,2015-10-13T06:30:00Z,28.2598,-96.7737,0.0,21.0,1111122 
TCOON,ioos:station:TCOON:127:1,2015-10-13T08:00:00Z,28.2598,-96.7737,0.0,20.9,1111122 
TCOON,ioos:station:TCOON:127:1,2015-10-13T08:30:00Z,28.2598,-96.7737,0.0,20.9,1111122 
TCOON,ioos:station:TCOON:127:1,2015-10-13T09:30:00Z,28.2598,-96.7737,0.0,20.8,1111122 
TCOON,ioos:station:TCOON:127:1,2015-10-13T11:30:00Z,28.2598,-96.7737,0.0,20.7,1111122 
TCOON,ioos:station:TCOON:127:1,2015-10-13T12:30:00Z,28.2598,-96.7737,0.0,20.6,1111122 
TCOON,ioos:station:TCOON:127:1,2015-10-13T13:30:00Z,28.2598,-96.7737,0.0,20.5,1111122 
TCOON,ioos:station:TCOON:127:1,2015-10-13T14:30:00Z,28.2598,-96.7737,0.0,19.9,1111122 
TCOON,ioos:station:TCOON:127:1,2015-10-13T15:30:00Z,28.2598,-96.7737,0.0,19.8,1111122 
TCOON,ioos:station:TCOON:127:1,2015-10-13T16:30:00Z,28.2598,-96.7737,0.0,19.6,1111122 
TCOON,ioos:station:TCOON:127:1,2015-10-13T17:30:00Z,28.2598,-96.7737,0.0,19.4,1111122 
TCOON,ioos:station:TCOON:127:1,2015-10-13T18:30:00Z,28.2598,-96.7737,0.0,19.3,1111122 
TCOON,ioos:station:TCOON:127:1,2015-10-13T19:30:00Z,28.2598,-96.7737,0.0,19.3,1111122 
TCOON,ioos:station:TCOON:127:1,2015-10-13T20:30:00Z,28.2598,-96.7737,0.0,19.5,1111122 
TCOON,ioos:station:TCOON:127:1,2015-10-13T21:30:00Z,28.2598,-96.7737,0.0,19.5,1111122 
TCOON,ioos:station:TCOON:127:1,2015-10-13T22:30:00Z,28.2598,-96.7737,0.0,19.5,1111122 
TCOON,ioos:station:TCOON:127:1,2015-10-13T23:30:00Z,28.2598,-96.7737,0.0,19.6,1111122 
TCOON,ioos:station:TCOON:127:1,2015-10-14T12:30:00Z,28.2598,-96.7737,0.0,19.0,1111122 
TCOON,ioos:station:TCOON:127:1,2015-10-14T16:30:00Z,28.2598,-96.7737,0.0,19.2,1111122 
TCOON,ioos:station:TCOON:127:1,2015-10-14T17:30:00Z,28.2598,-96.7737,0.0,19.3,1111122 
TCOON,ioos:station:TCOON:127:1,2015-10-14T18:30:00Z,28.2598,-96.7737,0.0,19.4,1111122 
TCOON,ioos:station:TCOON:127:1,2015-10-14T19:30:00Z,28.2598,-96.7737,0.0,19.7,1111122 
TCOON,ioos:station:TCOON:127:1,2015-10-14T21:30:00Z,28.2598,-96.7737,0.0,19.9,1111122 
TCOON,ioos:station:TCOON:127:1,2015-10-14T22:30:00Z,28.2598,-96.7737,0.0,19.8,1111122 
TCOON,ioos:station:TCOON:127:1,2015-10-15T08:30:00Z,28.2598,-96.7737,0.0,19.5,1111122 
TCOON,ioos:station:TCOON:127:1,2015-10-15T10:30:00Z,28.2598,-96.7737,0.0,19.8,1111122 
TCOON,ioos:station:TCOON:127:1,2015-10-15T11:30:00Z,28.2598,-96.7737,0.0,19.8,1111122 
TCOON,ioos:station:TCOON:127:1,2015-10-15T12:30:00Z,28.2598,-96.7737,0.0,19.7,1111122 
TCOON,ioos:station:TCOON:127:1,2015-10-15T16:30:00Z,28.2598,-96.7737,0.0,19.3,1111122 
TCOON,ioos:station:TCOON:127:1,2015-10-15T17:30:00Z,28.2598,-96.7737,0.0,19.6,1111122 
TCOON,ioos:station:TCOON:127:1,2015-10-15T18:30:00Z,28.2598,-96.7737,0.0,19.6,1111122 
TCOON,ioos:station:TCOON:127:1,2015-10-15T19:30:00Z,28.2598,-96.7737,0.0,19.9,1111122 
TCOON,ioos:station:TCOON:127:1,2015-10-15T20:30:00Z,28.2598,-96.7737,0.0,19.7,1111122 
TCOON,ioos:station:TCOON:127:1,2015-10-15T21:30:00Z,28.2598,-96.7737,0.0,19.7,1111122 
TCOON,ioos:station:TCOON:127:1,2015-10-15T22:30:00Z,28.2598,-96.7737,0.0,19.6,1111122 
TCOON,ioos:station:TCOON:127:1,2015-10-15T23:30:00Z,28.2598,-96.7737,0.0,19.6,1111122 
TCOON,ioos:station:TCOON:127:1,2015-10-16T00:30:00Z,28.2598,-96.7737,0.0,19.6,1111122 
TCOON,ioos:station:TCOON:127:1,2015-10-16T01:30:00Z,28.2598,-96.7737,0.0,19.7,1111122 
TCOON,ioos:station:TCOON:127:1,2015-10-16T02:30:00Z,28.2598,-96.7737,0.0,19.7,1111122 
TCOON,ioos:station:TCOON:127:1,2015-10-16T03:30:00Z,28.2598,-96.7737,0.0,19.7,1111122 
TCOON,ioos:station:TCOON:127:1,2015-10-16T06:30:00Z,28.2598,-96.7737,0.0,19.4,1111122 
TCOON,ioos:station:TCOON:127:1,2015-10-16T08:00:00Z,28.2598,-96.7737,0.0,19.8,1111122 
TCOON,ioos:station:TCOON:127:1,2015-10-16T08:30:00Z,28.2598,-96.7737,0.0,19.8,1111122 